Slayton, MN

6:28 AM CST on February 19, 2017 (GMT -0600)
Slayton

Weather History for KDVP - December, 2012

Change the Weather History Date:

Thursday, December 6, 2012

  Actual Average (KOTG) Record (KOTG)
Temperature  
Mean Temperature 38 °F -  
Max Temperature 48 °F 31 °F 50 °F (2012)
Min Temperature 29 °F 17 °F -18 °F (1972)
Degree Days  
Heating Degree Days 26    
Moisture  
Dew Point 25 °F    
Average Humidity 57    
Maximum Humidity 69    
Minimum Humidity 34    
Precipitation  
Precipitation 0.00 in - - ()
Sea Level Pressure  
Sea Level Pressure 29.89 in    
Wind  
Wind Speed 16 mph (WNW)    
Max Wind Speed 23 mph    
Max Gust Speed 31 mph    
Visibility 10 miles    
Events Rain    
Averages and records for this station are not official NWS values.
T = Trace of Precipitation, MM = Missing Value Source: NWS Daily Summary

Daily Weather History Graph

Daily Weather History Graph

Search for Another Location

Airport or City:

Trip Planner

Search our weather history database for the weather conditions in past years. The results will help you decide how hot, cold, wet, or windy it might be!

Date:

Astronomy

Dec. 06, 2012 Rise Set
Actual Time 7:43 AM CST 4:45 PM CST
Civil Twilight 7:10 AM CST 5:17 PM CST
Nautical Twilight 6:34 AM CST 5:54 PM CST
Astronomical Twilight 5:59 AM CST 6:29 PM CST
Moon No Moon Rise 12:24 PM CST (12/6)
Length of Visible Light 10h 07m
Length of Day
9h 01m
Waning Gibbous, 49% of the Moon is Illuminated
Dec 6
Waning Gibbous
Dec 13
New
Dec 19
First Quarter
Dec 28
Full
Jan 4
Last Quarter

Hourly Weather History & Observations

Time (CST) Temp. Windchill Dew Point Humidity Pressure Visibility Wind Dir Wind Speed Gust Speed Precip Events Conditions
12:15 AM 48.2 °F - 21.9 °F 36% 29.74 in 10.0 mi South 23.0 mph 31.1 mph N/A   Clear
12:35 AM 48.2 °F - 21.7 °F 35% 29.74 in 10.0 mi South 21.9 mph 26.5 mph N/A   Mostly Cloudy
12:55 AM 48.2 °F - 21.4 °F 35% 29.74 in 10.0 mi SSW 20.7 mph 28.8 mph N/A   Mostly Cloudy
1:14 AM 48.0 °F - 21.4 °F 35% 29.74 in 10.0 mi South 21.9 mph 27.6 mph N/A   Overcast
1:35 AM 48.4 °F - 21.0 °F 34% 29.74 in 10.0 mi SSW 20.7 mph 29.9 mph N/A   Overcast
1:55 AM 48.4 °F - 20.8 °F 34% 29.75 in 10.0 mi SSW 19.6 mph 28.8 mph N/A   Overcast
2:15 AM 48.2 °F - 20.8 °F 34% 29.75 in 10.0 mi SSW 20.7 mph 26.5 mph N/A   Overcast
2:35 AM 47.7 °F - 22.3 °F 37% 29.75 in 10.0 mi SSW 23.0 mph 27.6 mph N/A   Overcast
2:55 AM 46.9 °F - 24.3 °F 41% 29.76 in 10.0 mi SSW 19.6 mph 25.3 mph N/A   Overcast
3:15 AM 45.5 °F 38.3 °F 27.5 °F 49% 29.75 in 10.0 mi SSW 17.3 mph 24.2 mph N/A Rain Light Rain
3:35 AM 45.5 °F 38.1 °F 27.3 °F 49% 29.77 in 10.0 mi SW 18.4 mph - N/A   Overcast
3:55 AM 44.6 °F 37.2 °F 28.2 °F 53% 29.77 in 10.0 mi SW 17.3 mph 24.2 mph N/A   Overcast
4:15 AM 43.9 °F 36.5 °F 29.8 °F 58% 29.78 in 10.0 mi SW 16.1 mph - N/A   Overcast
4:34 AM 43.9 °F 36.8 °F 30.2 °F 59% 29.79 in 10.0 mi SW 15.0 mph - N/A   Overcast
4:55 AM 43.7 °F 38.1 °F 30.7 °F 60% 29.80 in 10.0 mi WSW 10.4 mph - N/A   Overcast
5:15 AM 44.2 °F 39.2 °F 30.4 °F 58% 29.81 in 10.0 mi West 9.2 mph - N/A   Light Drizzle
5:35 AM 43.7 °F 40.3 °F 29.3 °F 57% 29.80 in 10.0 mi WNW 5.8 mph - N/A   Overcast
5:55 AM 42.3 °F 37.3 °F 29.3 °F 60% 29.81 in 10.0 mi NW 8.1 mph - N/A   Scattered Clouds
6:15 AM 42.3 °F 36.8 °F 29.8 °F 61% 29.83 in 10.0 mi NW 9.2 mph - N/A   Scattered Clouds
6:35 AM 39.7 °F 33.7 °F 29.3 °F 66% 29.84 in 10.0 mi WNW 9.2 mph - N/A   Clear
6:55 AM 39.2 °F 33.0 °F 29.3 °F 68% 29.86 in 10.0 mi WNW 9.2 mph - N/A   Clear
7:15 AM 40.5 °F 34.6 °F 29.1 °F 64% 29.86 in 10.0 mi WNW 9.2 mph - N/A   Clear
7:35 AM 40.8 °F 33.7 °F 27.3 °F 59% 29.86 in 10.0 mi NW 12.7 mph - N/A   Clear
7:54 AM 41.4 °F 33.0 °F 25.7 °F 54% 29.88 in 10.0 mi NW 17.3 mph - N/A   Clear
8:15 AM 40.6 °F 32.7 °F 26.1 °F 56% 29.88 in 10.0 mi NW 15.0 mph 20.7 mph N/A   Clear
8:35 AM 39.7 °F 33.2 °F 26.2 °F 59% 29.89 in 10.0 mi NW 10.4 mph - N/A   Clear
8:55 AM 39.6 °F 32.1 °F 26.4 °F 59% 29.90 in 10.0 mi NW 12.7 mph - N/A   Scattered Clouds
9:15 AM 39.6 °F 32.5 °F 26.6 °F 60% 29.91 in 10.0 mi WNW 11.5 mph - N/A   Clear
9:35 AM 38.7 °F 30.5 °F 27.0 °F 63% 29.91 in 10.0 mi NW 13.8 mph - N/A   Clear
9:55 AM 38.7 °F 30.9 °F 27.5 °F 64% 29.91 in 10.0 mi NW 12.7 mph - N/A   Clear
10:15 AM 38.8 °F 31.2 °F 28.0 °F 65% 29.92 in 10.0 mi NW 12.7 mph - N/A   Clear
10:35 AM 41.4 °F 34.3 °F 28.2 °F 60% 29.93 in 10.0 mi NW 12.7 mph 18.4 mph N/A   Clear
10:55 AM 41.9 °F 33.7 °F 28.0 °F 58% 29.93 in 10.0 mi NW 17.3 mph - N/A   Clear
11:15 AM 42.8 °F 35.4 °F 27.9 °F 56% 29.93 in 10.0 mi NNW 15.0 mph 19.6 mph N/A   Clear
11:34 AM 42.8 °F 35.1 °F 28.0 °F 56% 29.91 in 10.0 mi NW 16.1 mph 19.6 mph N/A   Scattered Clouds
11:55 AM 42.6 °F 35.6 °F 27.5 °F 55% 29.91 in 10.0 mi NW 13.8 mph 18.4 mph N/A   Scattered Clouds
12:15 PM 42.3 °F 34.8 °F 27.7 °F 56% 29.92 in 10.0 mi NW 15.0 mph - N/A   Scattered Clouds
12:35 PM 43.0 °F 35.7 °F 27.5 °F 54% 29.92 in 10.0 mi NW 15.0 mph - N/A   Mostly Cloudy
12:55 PM 43.7 °F 36.3 °F 27.7 °F 53% 29.91 in 10.0 mi NW 16.1 mph - N/A   Overcast
1:15 PM 43.7 °F 36.9 °F 27.5 °F 53% 29.91 in 10.0 mi NW 13.8 mph - N/A   Overcast
1:35 PM 43.2 °F 35.6 °F 27.5 °F 54% 29.91 in 10.0 mi WNW 16.1 mph - N/A   Mostly Cloudy
1:55 PM 42.4 °F 34.4 °F 27.5 °F 56% 29.91 in 10.0 mi WNW 17.3 mph - N/A   Mostly Cloudy
2:15 PM 42.1 °F 35.7 °F 27.9 °F 57% 29.92 in 10.0 mi WNW 11.5 mph - N/A   Overcast
2:35 PM 42.8 °F 35.4 °F 27.7 °F 55% 29.92 in 10.0 mi West 15.0 mph - N/A   Overcast
2:55 PM 43.0 °F 34.8 °F 27.3 °F 54% 29.93 in 10.0 mi WNW 18.4 mph - N/A   Overcast
3:16 PM 41.9 °F 33.7 °F 27.3 °F 56% 29.93 in 10.0 mi WNW 17.3 mph 23.0 mph N/A   Overcast
3:35 PM 41.9 °F 33.4 °F 27.1 °F 56% 29.94 in 10.0 mi WNW 18.4 mph - N/A   Mostly Cloudy
3:55 PM 41.2 °F 33.0 °F 27.1 °F 57% 29.95 in 10.0 mi WNW 16.1 mph - N/A   Scattered Clouds
4:15 PM 40.3 °F 34.4 °F 27.1 °F 59% 29.95 in 10.0 mi WNW 9.2 mph - N/A   Clear
4:35 PM 40.1 °F 34.1 °F 26.8 °F 59% 29.95 in 10.0 mi WNW 9.2 mph - N/A   Scattered Clouds
4:55 PM 39.0 °F 30.3 °F 24.8 °F 57% 29.95 in 10.0 mi NW 16.1 mph - N/A   Scattered Clouds
5:15 PM 37.6 °F 29.6 °F 24.3 °F 59% 29.96 in 10.0 mi NW 12.7 mph - N/A   Clear
5:35 PM 36.7 °F 29.9 °F 24.4 °F 61% 29.96 in 10.0 mi NW 9.2 mph - N/A   Scattered Clouds
5:55 PM 36.5 °F 30.3 °F 24.3 °F 61% 29.96 in 10.0 mi NW 8.1 mph - N/A   Scattered Clouds
6:14 PM 34.7 °F 26.9 °F 23.9 °F 65% 29.96 in 10.0 mi NW 10.4 mph - N/A   Scattered Clouds
6:35 PM 35.1 °F 27.9 °F 24.3 °F 65% 29.97 in 10.0 mi NW 9.2 mph - N/A   Overcast
6:55 PM 35.2 °F 28.1 °F 23.0 °F 61% 29.98 in 10.0 mi NNW 9.2 mph - N/A   Overcast
7:15 PM 34.7 °F 26.9 °F 22.8 °F 62% 29.98 in 10.0 mi NNW 10.4 mph - N/A   Overcast
7:35 PM 34.7 °F 26.4 °F 21.9 °F 60% 29.98 in 10.0 mi NNW 11.5 mph - N/A   Mostly Cloudy
7:55 PM 34.2 °F 27.5 °F 21.9 °F 61% 29.99 in 10.0 mi NNW 8.1 mph - N/A   Scattered Clouds
8:35 PM 32.9 °F 27.5 °F 22.5 °F 65% 29.99 in 10.0 mi North 5.8 mph - N/A   Mostly Cloudy
8:55 PM 32.2 °F 23.8 °F 21.4 °F 64% 30.00 in 10.0 mi North 10.4 mph - N/A   Overcast
9:15 PM 32.0 °F 23.0 °F 21.0 °F 64% 30.00 in 10.0 mi North 11.5 mph - N/A   Overcast
9:34 PM 31.8 °F 23.3 °F 20.8 °F 64% 30.00 in 10.0 mi North 10.4 mph - N/A   Overcast
9:56 PM 31.1 °F 23.1 °F 21.0 °F 66% 30.00 in 10.0 mi North 9.2 mph - N/A   Overcast
10:15 PM 30.7 °F 22.6 °F 20.8 °F 67% 30.00 in 10.0 mi North 9.2 mph - N/A   Overcast
10:35 PM 30.2 °F 24.3 °F 20.3 °F 67% 30.00 in 10.0 mi North 5.8 mph - N/A   Overcast
10:55 PM 29.8 °F 24.9 °F 20.1 °F 67% 30.00 in 10.0 mi NE 4.6 mph - N/A   Overcast
11:15 PM 29.7 °F 26.1 °F 20.1 °F 68% 30.00 in 10.0 mi NNE 3.5 mph - N/A   Overcast
11:35 PM 29.3 °F 23.2 °F 19.9 °F 68% 30.00 in 10.0 mi North 5.8 mph - N/A   Overcast
11:54 PM 29.1 °F 23.0 °F 20.1 °F 69% 30.01 in 10.0 mi North 5.8 mph - N/A   Overcast